Location: Barrialito
(9.8982°N, 67.7750°W)
Time: 18:10:50
(UTC+00:00)

Cosmos 2181 Rocket - Visible Passes

Search period start: 12 July 2024 00:00
Search period end: 22 July 2024 00:00
Orbit: 950 x 1015 km, 82.9° (Epoch: 11 July)

Date Brightness Start Highest point End Pass type
(mag) Time Alt. Az. Time Alt. Az. Time Alt. Az.
12 Jul 5.8 02:09:10 10° NNW 02:11:46 25° NNW 02:11:46 25° NNW visible
13 Jul 5.4 00:51:56 10° NNE 00:54:44 23° NE 00:54:44 23° NE visible
13 Jul 6.4 02:38:03 10° NW 02:39:35 15° WNW 02:39:35 15° WNW visible
14 Jul 4.8 01:18:42 10° N 01:22:37 41° NNE 01:22:37 41° NNE visible
15 Jul 5.8 00:04:36 10° ENE 00:05:39 11° ENE 00:05:39 11° ENE visible
15 Jul 5.1 01:46:23 10° NNW 01:50:30 39° NW 01:50:30 39° NW visible
16 Jul 4.9 00:29:17 10° NNE 00:33:36 28° ENE 00:33:36 28° ENE visible
16 Jul 6.1 02:15:11 10° NW 02:18:27 21° WNW 02:18:27 21° WNW visible
17 Jul 4.0 00:55:59 10° N 01:01:34 65° NE 01:01:34 65° NE visible
17 Jul 5.7 23:42:16 10° ENE 23:44:17 12° E 23:44:45 11° E visible
18 Jul 4.5 01:23:38 10° NNW 01:29:36 53° W 01:29:36 53° W visible
19 Jul 4.8 00:06:39 10° NNE 00:11:54 28° E 00:12:49 27° E visible
19 Jul 5.8 01:52:19 10° NW 01:57:06 23° W 01:57:41 23° W visible
20 Jul 3.9 00:33:16 10° N 00:39:26 65° E 00:40:58 50° SE visible
20 Jul 5.7 23:20:01 10° ENE 23:21:34 11° E 23:23:07 10° E visible
21 Jul 4.5 01:00:52 10° NNW 01:06:57 56° W 01:09:11 38° SSW visible
21 Jul 4.9 23:44:00 10° NNE 23:49:11 27° E 23:52:36 17° SE visible
